Weather History for Oxford, CT

Change the Weather History Date:

Tuesday, November 6, 2012

  Actual Average Record
Temperature  
Mean Temperature 30 °F -  
Max Temperature 39 °F 49 °F 60 °F (1999)
Min Temperature 21 °F 33 °F 21 °F (2011)
Degree Days  
Heating Degree Days 35    
Moisture  
Dew Point 16 °F    
Average Humidity 60    
Maximum Humidity 80    
Minimum Humidity 36    
Precipitation  
Precipitation 0.00 in - - ()
Sea Level Pressure  
Sea Level Pressure 30.17 in    
Wind  
Wind Speed 5 mph (NNE)    
Max Wind Speed 13 mph    
Max Gust Speed -    
Visibility 10 miles    
Events      
Averages and records for this station are not official NWS values.
T = Trace of Precipitation, MM = Missing Value Source: NWS Daily Summary

Daily Weather History Graph

Daily Weather History Graph

Search for Another Location

Airport:

Trip Planner

Search our weather history database for the weather conditions in past years. The results will help you decide how hot, cold, wet, or windy it might be!

Date:

Astronomy

Nov. 06, 2012 Rise Set
Actual Time 6:30 AM EST 4:41 PM EST
Civil Twilight 6:01 AM EST 5:10 PM EST
Nautical Twilight 5:28 AM EST 5:43 PM EST
Astronomical Twilight 4:56 AM EST 6:15 PM EST
Moon 11:18 PM EST (11/6) 12:20 PM EST (11/6)
Length of Visible Light 11h 08m
Length of Day
10h 10m
Waning Gibbous, 53% of the Moon is Illuminated
Nov 6
Waning Gibbous
Nov 6
Last Quarter
Nov 13
New
Nov 20
First Quarter
Nov 28
Full

Hourly Weather History & Observations

Time (EST) Temp. Windchill Dew Point Humidity Pressure Visibility Wind Dir Wind Speed Gust Speed Precip Events Conditions
12:15 AM 26.6 °F 22.6 °F 15.8 °F 64% 30.17 in 10.0 mi NNW 3.5 mph - N/A   Clear
12:35 AM 28.4 °F 23.3 °F 15.8 °F 59% 30.18 in 10.0 mi NNW 4.6 mph - N/A   Clear
12:55 AM 26.6 °F - 15.8 °F 64% 30.18 in 10.0 mi Calm Calm - N/A   Clear
1:15 AM 26.6 °F 21.2 °F 15.8 °F 64% 30.18 in 10.0 mi NNW 4.6 mph - N/A   Clear
1:35 AM 26.6 °F 20.0 °F 15.8 °F 64% 30.19 in 10.0 mi NW 5.8 mph - N/A   Clear
1:55 AM 26.6 °F 21.2 °F 15.8 °F 64% 30.19 in 10.0 mi NNW 4.6 mph - N/A   Clear
2:15 AM 24.8 °F 19.1 °F 12.2 °F 59% 30.19 in 10.0 mi North 4.6 mph - N/A   Clear
2:35 AM 24.8 °F 17.9 °F 15.8 °F 69% 30.19 in 10.0 mi North 5.8 mph - N/A   Clear
2:55 AM 24.8 °F 17.9 °F 15.8 °F 69% 30.18 in 10.0 mi North 5.8 mph - N/A   Clear
3:15 AM 23.0 °F 15.8 °F 15.8 °F 74% 30.17 in 10.0 mi North 5.8 mph - N/A   Clear
3:35 AM 24.8 °F 19.1 °F 12.2 °F 59% 30.17 in 10.0 mi North 4.6 mph - N/A   Clear
3:55 AM 24.8 °F 19.1 °F 17.6 °F 74% 30.17 in 10.0 mi North 4.6 mph - N/A   Clear
4:15 AM 24.8 °F 19.1 °F 17.6 °F 74% 30.18 in 10.0 mi North 4.6 mph - N/A   Clear
4:35 AM 21.2 °F 13.6 °F 12.2 °F 68% 30.18 in 10.0 mi North 5.8 mph - N/A   Clear
4:55 AM 21.2 °F 11.7 °F 12.2 °F 68% 30.18 in 10.0 mi North 8.1 mph - N/A   Clear
5:15 AM 21.2 °F 13.6 °F 15.8 °F 80% 30.18 in 10.0 mi North 5.8 mph - N/A   Clear
5:35 AM 24.8 °F 16.9 °F 15.8 °F 69% 30.19 in 10.0 mi North 6.9 mph - N/A   Clear
5:45 AM 24.8 °F 16.9 °F 15.8 °F 69% 30.19 in 10.0 mi North 6.9 mph - N/A   Clear
6:45 AM 24.8 °F 19.1 °F 15.8 °F 69% 30.21 in 10.0 mi North 4.6 mph - N/A   Clear
7:45 AM 26.6 °F 20.0 °F 19.4 °F 74% 30.23 in 10.0 mi NNE 5.8 mph - N/A   Clear
8:45 AM 30.2 °F 22.6 °F 17.6 °F 60% 30.23 in 10.0 mi NNE 8.1 mph - N/A   Clear
9:45 AM 33.8 °F 27.0 °F 17.6 °F 52% 30.23 in 10.0 mi NE 8.1 mph - N/A   Clear
10:45 AM 35.6 °F 27.1 °F 17.6 °F 48% 30.22 in 10.0 mi North 12.7 mph - N/A   Clear
11:45 AM 35.6 °F 27.5 °F 17.6 °F 48% 30.21 in 10.0 mi North 11.5 mph - N/A   Clear
12:45 PM 39.2 °F 37.0 °F 17.6 °F 42% 30.19 in 10.0 mi Variable 3.5 mph - N/A   Clear
1:45 PM 33.8 °F 30.8 °F 15.8 °F 48% 30.18 in 10.0 mi Variable 3.5 mph - N/A   Clear
3:45 PM 39.2 °F 37.0 °F 14.0 °F 36% 30.16 in 10.0 mi Variable 3.5 mph - N/A   Clear
6:45 PM 33.8 °F 30.8 °F 14.0 °F 44% 30.17 in 10.0 mi Variable 3.5 mph - N/A   Clear
7:45 PM 32.0 °F 26.4 °F 15.8 °F 51% 30.15 in 10.0 mi NE 5.8 mph - N/A   Clear
8:45 PM 32.0 °F 27.5 °F 15.8 °F 51% 30.16 in 10.0 mi ENE 4.6 mph - N/A   Clear
9:15 PM 30.2 °F 24.3 °F 15.8 °F 55% 30.15 in 10.0 mi ENE 5.8 mph - N/A   Clear
9:35 PM 32.0 °F 26.4 °F 15.8 °F 51% 30.13 in 10.0 mi ENE 5.8 mph - N/A   Clear
9:55 PM 30.2 °F 25.4 °F 15.8 °F 55% 30.14 in 10.0 mi East 4.6 mph - N/A   Clear
10:15 PM 30.2 °F 24.3 °F 15.8 °F 55% 30.13 in 10.0 mi ENE 5.8 mph - N/A   Clear
10:35 PM 30.2 °F 25.4 °F 15.8 °F 55% 30.13 in 10.0 mi East 4.6 mph - N/A   Clear
10:55 PM 30.2 °F 25.4 °F 15.8 °F 55% 30.14 in 10.0 mi East 4.6 mph - N/A   Clear
11:15 PM 30.2 °F 22.6 °F 15.8 °F 55% 30.12 in 10.0 mi ENE 8.1 mph - N/A   Clear
11:35 PM 30.2 °F 23.4 °F 15.8 °F 55% 30.13 in 10.0 mi ENE 6.9 mph - N/A   Clear
11:55 PM 30.2 °F 22.6 °F 15.8 °F 55% 30.12 in 10.0 mi ENE 8.1 mph - N/A   Clear